ソーホー彗星

321P/SOHO (2001)

English version
Home page
Updated on June 14, 2015

---------------------------------------------------------------------

・ プロフィール

符号 321P/2001 D1

・ 軌道要素

Epoch 2001 Feb. 20.0 TT = JDT 2451960.5
T 2001 Feb. 18.76953 TT                                 MPCW
q   0.0498089            (2000.0)            P               Q
n   0.25917697     Peri.  172.03461     +0.92656986     +0.36749775
a   2.4363431      Node   165.59380     -0.36039389     +0.92839386
e   0.9795559      Incl.   18.77752     -0.10763152     +0.05504768
P   3.80
From 90 observations 1997 May 1-2012 June 30.  Nongravitational parameters
     A1 = +0.00, A2 = -0.0002.

・ 光度変化

        m1 = 20 + 5 logΔ + 10 log r

---------------------------------------------------------------------

軌道要素はM.P.E.C. 2015-K01に掲載されたものです。
光度グラフはComet for Windowsで作成したものです。

---------------------------------------------------------------------

Copyright(C) Seiichi Yoshida (comet@aerith.net). All rights reserved.